Prescott, AZ

9:24 PM MST on November 11, 2019 (GMT -0700)
Love

Weather History for KPRC - May, 2019

Change the Weather History Date:

Saturday, May 25, 2019

  Actual Average Record
Temperature  
Mean Temperature 55 °F 64 °F  
Max Temperature 72 °F 80 °F 94 °F (1951)
Min Temperature 38 °F 49 °F 33 °F (1980)
Degree Days  
Heating Degree Days 10    
Month to date heating degree days 233  
Since 1 July heating degree days 4282  
Cooling Degree Days 0    
Month to date cooling degree days 0  
Year to date cooling degree days 1  
Growing Degree Days 5 (Base 50)    
Moisture  
Dew Point 22 °F    
Average Humidity 30    
Maximum Humidity 65    
Minimum Humidity 11    
Precipitation  
Precipitation 0.00 in 0.01 in 0.24 in (1994)
Month to date precipitation 1.13 0.37  
Year to date precipitation 6.65 4.45  
Sea Level Pressure  
Sea Level Pressure 29.80 in    
Wind  
Wind Speed 8 mph ()    
Max Wind Speed 22 mph    
Max Gust Speed 31 mph    
Visibility 10.0 miles    
Events      
T = Trace of Precipitation, MM = Missing Value Source: Averaged Metar Reports

Daily Weather History Graph

Daily Weather History Graph

Search for Another Location

Airport or City:

Astronomy

May. 25, 2019 Rise Set
Actual Time 5:20 AM MST 7:32 PM MST
Civil Twilight 4:52 AM MST 8:01 PM MST
Nautical Twilight 4:17 AM MST 8:36 PM MST
Astronomical Twilight 3:39 AM MST 9:14 PM MST
Moon 12:38 AM MST (5/25) 11:20 AM MST (5/25)
Length of Visible Light 15h 09m
Length of Day
14h 12m
Waning Gibbous, 58% of the Moon is Illuminated
May 25
Waning Gibbous
May 26
Last Quarter
Jun 3
New
Jun 9
First Quarter
Jun 17
Full

Hourly Weather History & Observations

Time (MST) Temp. Windchill Dew Point Humidity Pressure Visibility Wind Dir Wind Speed Gust Speed Precip Events Conditions
12:53 AM 43.0 °F 38.2 °F 27.0 °F 53% 29.83 in 10.0 mi South 8.1 mph - N/A   Clear
1:53 AM 44.1 °F 39.0 °F 26.1 °F 49% 29.82 in 10.0 mi South 9.2 mph - N/A   Clear
2:53 AM 42.1 °F 40.2 °F 27.0 °F 55% 29.81 in 10.0 mi SW 3.5 mph - N/A   Clear
3:53 AM 42.1 °F 38.4 °F 28.0 °F 58% 29.81 in 10.0 mi SW 5.8 mph - N/A   Clear
4:53 AM 39.0 °F 36.8 °F 28.0 °F 65% 29.83 in 10.0 mi South 3.5 mph - N/A   Clear
5:53 AM 39.0 °F 34.8 °F 28.0 °F 65% 29.83 in 10.0 mi SSW 5.8 mph - N/A   Clear
6:53 AM 48.9 °F - 28.9 °F 46% 29.83 in 10.0 mi Calm Calm - N/A   Clear
7:53 AM 55.9 °F - 30.0 °F 37% 29.84 in 10.0 mi NNE 3.5 mph - N/A   Clear
8:53 AM 63.0 °F - 24.1 °F 23% 29.83 in 10.0 mi East 3.5 mph - N/A   Clear
9:53 AM 66.0 °F - 16.0 °F 15% 29.82 in 10.0 mi SW 12.7 mph - N/A   Clear
10:53 AM 69.1 °F - 14.0 °F 12% 29.81 in 10.0 mi SW 17.3 mph 24.2 mph N/A   Clear
11:53 AM 69.1 °F - 18.0 °F 14% 29.81 in 10.0 mi SW 15.0 mph 27.6 mph N/A   Clear
12:53 PM 70.0 °F - 16.0 °F 13% 29.82 in 10.0 mi SW 13.8 mph 25.3 mph N/A   Partly Cloudy
1:53 PM 71.1 °F - 19.9 °F 14% 29.80 in 10.0 mi SSW 15.0 mph 25.3 mph N/A   Partly Cloudy
2:53 PM 71.1 °F - 18.0 °F 13% 29.79 in 10.0 mi SSW 12.7 mph 25.3 mph N/A   Clear
3:53 PM 71.1 °F - 18.0 °F 13% 29.78 in 10.0 mi SW 18.4 mph 25.3 mph N/A   Clear
4:53 PM 70.0 °F - 17.1 °F 13% 29.78 in 10.0 mi SSW 13.8 mph 24.2 mph N/A   Clear
5:53 PM 68.0 °F - 17.1 °F 14% 29.78 in 10.0 mi SSW 18.4 mph 26.5 mph N/A   Clear
6:53 PM 66.9 °F - 19.9 °F 17% 29.76 in 10.0 mi SSW 9.2 mph 17.3 mph N/A   Clear
7:53 PM 62.1 °F - 18.0 °F 18% 29.76 in 10.0 mi SSW 4.6 mph - N/A   Clear
8:53 PM 55.9 °F - 24.1 °F 29% 29.76 in 10.0 mi SSW 5.8 mph - N/A   Clear
9:53 PM 54.0 °F - 19.9 °F 26% 29.76 in 10.0 mi SSW 8.1 mph - N/A   Clear
10:53 PM 51.1 °F - 21.9 °F 32% 29.75 in 10.0 mi South 8.1 mph - N/A   Clear
11:53 PM 50.0 °F - 23.0 °F 35% 29.74 in 10.0 mi SSW 6.9 mph - N/A   Clear